Location: Hackbridge
(51.3833°N, 0.1500°W)
Time: 03:32:12
(UTC+00:00)

STARLINK-53 - Pass Details

Date: 13 October 2019
Orbit: 550 x 552 km, 53.0° (Epoch: 13 November)

Event Time Altitude Azimuth Distance (km) Brightness Sun altitude
Rises 19:37:12 0° 249° (WSW) 2,716 7.9 -23.2°
Reaches altitude 10° 19:39:25 10° 248° (WSW) 1,825 6.9 -23.5°
Enters shadow 19:43:02 66° 236° (SW) 603 3.8 -24.0°
